Volver al catálogo

STARLINK-36481

ActivoComunicacionesVLEO
NORAD 67307·PAYLOAD·🇺🇸 United States

Lanzado Jan 4, 2026 desde Cape Canaveral Space Force Station

Loading…

Próximos Pases (próximas 24 horas)

TLE

ActualizadoSource: CelesTrak SupGP

Época: Sep 14, 2026, 20:57 UTC

1 67307C 26002C   26257.87340278 -.00019048  00000+0 -68990-3 0  2579
2 67307  43.0026 336.9618 0001649 269.2830 353.7993 15.27587753    16

Sigue STARLINK-36481 en tiempo real con AllMySat

Download on the App Store